Time,TemperatureF,DewpointF,PressureIn,WindDirection,WindDirectionDegrees,WindSpeedMPH,WindSpeedGustMPH,Humidity,HourlyPrecipIn,Conditions,Clouds,dailyrainin,SoftwareType,DateUTC
2013-03-18 00:02:00,57.0,52.0,29.98,SSE,161,3.0,6.0,84,0.00,,,0.00,,2013-03-18 07:02:00,
2013-03-18 00:33:00,57.0,53.0,29.99,SSE,154,3.0,7.0,85,0.00,,,0.00,,2013-03-18 07:33:00,
2013-03-18 00:42:00,57.0,53.0,29.99,SSE,154,3.0,7.0,85,0.00,,,0.00,,2013-03-18 07:42:00,
2013-03-18 00:52:00,57.0,53.0,29.99,SSE,154,3.0,7.0,85,0.00,,,0.00,,2013-03-18 07:52:00,
2013-03-18 01:02:00,57.0,53.0,29.99,SSE,154,3.0,7.0,85,0.00,,,0.00,,2013-03-18 08:02:00,
2013-03-18 01:11:00,57.0,53.0,29.99,SSE,154,3.0,7.0,85,0.00,,,0.00,,2013-03-18 08:11:00,
2013-03-18 01:32:00,57.0,53.0,30.00,SSE,147,4.0,6.0,85,0.00,,,0.00,,2013-03-18 08:32:00,
2013-03-18 01:43:00,57.0,53.0,30.00,SSE,147,4.0,6.0,85,0.00,,,0.00,,2013-03-18 08:43:00,
2013-03-18 01:52:00,57.0,53.0,29.99,SSE,160,2.0,6.0,85,0.00,,,0.00,,2013-03-18 08:52:00,
2013-03-18 02:02:00,57.0,52.0,30.00,East,96,1.0,6.0,84,0.00,,,0.00,,2013-03-18 09:02:00,
2013-03-18 02:11:00,57.0,52.0,30.00,East,96,1.0,6.0,84,0.00,,,0.00,,2013-03-18 09:11:00,
2013-03-18 02:22:00,57.0,52.0,29.99,ENE,73,2.0,5.0,84,0.00,,,0.00,,2013-03-18 09:22:00,
2013-03-18 02:32:00,57.0,52.0,29.99,South,171,1.0,3.0,84,0.00,,,0.00,,2013-03-18 09:32:00,
2013-03-18 02:42:00,57.0,52.0,29.99,South,171,1.0,3.0,84,0.00,,,0.00,,2013-03-18 09:42:00,
2013-03-18 02:52:00,57.0,52.0,29.99,South,171,1.0,3.0,84,0.00,,,0.00,,2013-03-18 09:52:00,
2013-03-18 03:03:00,57.0,52.0,29.99,East,88,0.0,5.0,84,0.00,,,0.00,,2013-03-18 10:03:00,
2013-03-18 03:12:00,57.0,52.0,29.99,East,88,0.0,5.0,84,0.00,,,0.00,,2013-03-18 10:12:00,
2013-03-18 03:23:00,57.0,52.0,29.99,East,88,0.0,5.0,84,0.00,,,0.00,,2013-03-18 10:23:00,
2013-03-18 03:33:00,57.0,52.0,29.99,SSE,162,3.0,5.0,84,0.00,,,0.00,,2013-03-18 10:33:00,
2013-03-18 03:42:00,57.0,52.0,29.99,SSE,162,3.0,5.0,84,0.00,,,0.00,,2013-03-18 10:42:00,
2013-03-18 03:53:00,57.0,52.0,29.99,SSE,162,3.0,5.0,84,0.00,,,0.00,,2013-03-18 10:53:00,
2013-03-18 04:03:00,56.0,51.0,29.99,South,174,2.0,3.0,84,0.00,,,0.00,,2013-03-18 11:03:00,
2013-03-18 04:12:00,56.0,51.0,29.99,South,174,2.0,3.0,84,0.00,,,0.00,,2013-03-18 11:12:00,
2013-03-18 04:22:00,56.0,51.0,29.99,South,174,2.0,3.0,84,0.00,,,0.00,,2013-03-18 11:22:00,
2013-03-18 04:31:00,56.0,51.0,29.99,South,174,2.0,3.0,84,0.00,,,0.00,,2013-03-18 11:31:00,
2013-03-18 04:42:00,56.0,51.0,29.99,South,174,2.0,3.0,84,0.00,,,0.00,,2013-03-18 11:42:00,
2013-03-18 04:52:00,56.0,51.0,29.98,SE,128,1.0,3.0,84,0.00,,,0.00,,2013-03-18 11:52:00,
2013-03-18 05:02:00,56.0,51.0,29.99,East,97,1.0,3.0,84,0.00,,,0.00,,2013-03-18 12:02:00,
2013-03-18 05:12:00,56.0,51.0,29.99,East,97,1.0,3.0,84,0.00,,,0.00,,2013-03-18 12:12:00,
2013-03-18 05:22:00,56.0,51.0,29.98,SE,131,3.0,5.0,84,0.00,,,0.00,,2013-03-18 12:22:00,
2013-03-18 05:32:00,56.0,51.0,29.98,SE,133,5.0,8.0,84,0.00,,,0.00,,2013-03-18 12:32:00,
2013-03-18 05:42:00,56.0,51.0,29.98,SE,133,5.0,8.0,84,0.00,,,0.00,,2013-03-18 12:42:00,
2013-03-18 05:51:00,56.0,51.0,29.98,SE,133,5.0,8.0,84,0.00,,,0.00,,2013-03-18 12:51:00,
2013-03-18 06:02:00,56.0,51.0,30.00,East,81,0.0,2.0,83,0.00,,,0.00,,2013-03-18 13:02:00,
2013-03-18 06:11:00,56.0,51.0,30.00,East,81,0.0,2.0,83,0.00,,,0.00,,2013-03-18 13:11:00,
2013-03-18 06:22:00,56.0,51.0,30.00,East,81,0.0,2.0,83,0.00,,,0.00,,2013-03-18 13:22:00,
2013-03-18 06:32:00,56.0,51.0,30.01,SSE,163,1.0,3.0,83,0.00,,,0.00,,2013-03-18 13:32:00,
2013-03-18 06:42:00,56.0,51.0,30.01,SSE,163,1.0,3.0,83,0.00,,,0.00,,2013-03-18 13:42:00,
2013-03-18 06:52:00,57.0,52.0,30.01,ESE,106,2.0,3.0,82,0.00,,,0.00,,2013-03-18 13:52:00,
2013-03-18 07:02:00,57.0,52.0,30.01,ESE,106,2.0,3.0,82,0.00,,,0.00,,2013-03-18 14:02:00,
2013-03-18 07:11:00,57.0,52.0,30.01,ESE,106,2.0,3.0,82,0.00,,,0.00,,2013-03-18 14:11:00,
2013-03-18 07:21:00,57.0,52.0,30.01,ESE,106,2.0,3.0,82,0.00,,,0.00,,2013-03-18 14:21:00,
2013-03-18 07:32:00,57.0,51.0,30.02,ESE,107,2.0,7.0,81,0.00,,,0.00,,2013-03-18 14:32:00,
2013-03-18 07:42:00,57.0,51.0,30.02,ESE,107,2.0,7.0,81,0.00,,,0.00,,2013-03-18 14:42:00,
2013-03-18 07:52:00,56.0,51.0,30.02,SE,140,0.0,6.0,82,0.00,,,0.00,,2013-03-18 14:52:00,
2013-03-18 08:02:00,56.0,51.0,30.02,SE,132,2.0,6.0,82,0.00,,,0.00,,2013-03-18 15:02:00,
2013-03-18 08:12:00,56.0,51.0,30.02,SE,132,2.0,6.0,82,0.00,,,0.00,,2013-03-18 15:12:00,
2013-03-18 08:22:00,56.0,51.0,30.03,SE,125,0.0,8.0,82,0.00,,,0.00,,2013-03-18 15:22:00,
2013-03-18 08:33:00,56.0,51.0,30.03,ESE,118,3.0,7.0,82,0.00,,,0.00,,2013-03-18 15:33:00,
2013-03-18 08:42:00,56.0,51.0,30.03,ESE,118,3.0,7.0,82,0.00,,,0.00,,2013-03-18 15:42:00,
2013-03-18 08:52:00,56.0,51.0,30.03,ESE,118,3.0,7.0,82,0.00,,,0.00,,2013-03-18 15:52:00,
2013-03-18 09:02:00,56.0,51.0,30.04,ESE,121,2.0,3.0,82,0.00,,,0.00,,2013-03-18 16:02:00,
2013-03-18 09:12:00,56.0,51.0,30.04,ESE,121,2.0,3.0,82,0.00,,,0.00,,2013-03-18 16:12:00,
2013-03-18 09:22:00,56.0,51.0,30.04,ESE,121,2.0,3.0,82,0.00,,,0.00,,2013-03-18 16:22:00,
2013-03-18 09:32:00,56.0,50.0,30.05,NE,34,2.0,5.0,80,0.00,,,0.00,,2013-03-18 16:32:00,
2013-03-18 09:42:00,56.0,50.0,30.05,NE,34,2.0,5.0,80,0.00,,,0.00,,2013-03-18 16:42:00,
2013-03-18 09:52:00,57.0,51.0,30.05,ENE,73,1.0,5.0,79,0.00,,,0.00,,2013-03-18 16:52:00,
2013-03-18 10:02:00,57.0,51.0,30.05,NE,50,1.0,5.0,79,0.00,,,0.00,,2013-03-18 17:02:00,
2013-03-18 10:11:00,57.0,51.0,30.05,NE,50,1.0,5.0,79,0.00,,,0.00,,2013-03-18 17:11:00,
2013-03-18 10:22:00,57.0,51.0,30.06,NE,55,1.0,5.0,80,0.00,,,0.00,,2013-03-18 17:22:00,
2013-03-18 10:32:00,57.0,51.0,30.06,NE,53,2.0,3.0,80,0.00,,,0.00,,2013-03-18 17:32:00,
2013-03-18 10:42:00,57.0,51.0,30.06,NE,53,2.0,3.0,80,0.00,,,0.00,,2013-03-18 17:42:00,
2013-03-18 10:52:00,57.0,51.0,30.07,ESE,111,0.0,3.0,80,0.00,,,0.00,,2013-03-18 17:52:00,
2013-03-18 11:02:00,57.0,51.0,30.08,South,185,0.0,3.0,79,0.00,,,0.00,,2013-03-18 18:02:00,
2013-03-18 11:11:00,57.0,51.0,30.08,South,185,0.0,3.0,79,0.00,,,0.00,,2013-03-18 18:11:00,
2013-03-18 11:21:00,58.0,52.0,30.08,SE,125,2.0,3.0,79,0.00,,,0.00,,2013-03-18 18:21:00,
2013-03-18 11:32:00,58.0,51.0,30.07,SSE,157,0.0,3.0,78,0.00,,,0.00,,2013-03-18 18:32:00,
2013-03-18 11:42:00,58.0,51.0,30.07,SSE,157,0.0,3.0,78,0.00,,,0.00,,2013-03-18 18:42:00,
2013-03-18 11:52:00,58.0,51.0,30.07,South,173,3.0,5.0,77,0.00,,,0.00,,2013-03-18 18:52:00,
2013-03-18 12:02:00,58.0,51.0,30.07,ESE,123,0.0,3.0,77,0.00,,,0.00,,2013-03-18 19:02:00,
2013-03-18 12:11:00,58.0,51.0,30.07,ESE,123,0.0,3.0,77,0.00,,,0.00,,2013-03-18 19:11:00,
2013-03-18 12:22:00,58.0,50.0,30.06,SE,143,1.0,5.0,76,0.00,,,0.00,,2013-03-18 19:22:00,
2013-03-18 12:32:00,59.0,51.0,30.06,SE,134,2.0,3.0,76,0.00,,,0.00,,2013-03-18 19:32:00,
2013-03-18 12:42:00,59.0,51.0,30.06,SE,134,2.0,3.0,76,0.00,,,0.00,,2013-03-18 19:42:00,
2013-03-18 12:52:00,59.0,51.0,30.06,SW,236,1.0,3.0,74,0.00,,,0.00,,2013-03-18 19:52:00,
2013-03-18 13:02:00,59.0,51.0,30.06,SW,236,1.0,3.0,74,0.00,,,0.00,,2013-03-18 20:02:00,
2013-03-18 13:12:00,59.0,51.0,30.06,SW,236,1.0,3.0,74,0.00,,,0.00,,2013-03-18 20:12:00,
2013-03-18 13:22:00,59.0,51.0,30.06,SW,236,1.0,3.0,74,0.00,,,0.00,,2013-03-18 20:22:00,
2013-03-18 13:33:00,61.0,51.0,30.06,South,170,1.0,6.0,70,0.00,,,0.00,,2013-03-18 20:33:00,
2013-03-18 13:42:00,61.0,51.0,30.06,South,170,1.0,6.0,70,0.00,,,0.00,,2013-03-18 20:42:00,
2013-03-18 13:52:00,62.0,51.0,30.05,East,100,3.0,8.0,68,0.00,,,0.00,,2013-03-18 20:52:00,
2013-03-18 14:02:00,63.0,52.0,30.04,NNW,335,2.0,5.0,67,0.00,,,0.00,,2013-03-18 21:02:00,
2013-03-18 14:11:00,63.0,52.0,30.04,NNW,335,2.0,5.0,67,0.00,,,0.00,,2013-03-18 21:11:00,
2013-03-18 14:22:00,63.0,52.0,30.04,NNW,335,2.0,5.0,67,0.00,,,0.00,,2013-03-18 21:22:00,
2013-03-18 14:32:00,64.0,52.0,30.03,South,169,1.0,5.0,64,0.00,,,0.00,,2013-03-18 21:32:00,
2013-03-18 14:42:00,64.0,52.0,30.03,South,169,1.0,5.0,64,0.00,,,0.00,,2013-03-18 21:42:00,
2013-03-18 14:52:00,64.0,52.0,30.02,SSE,164,3.0,6.0,64,0.00,,,0.00,,2013-03-18 21:52:00,
2013-03-18 15:03:00,64.0,52.0,30.02,SSE,164,3.0,6.0,64,0.00,,,0.00,,2013-03-18 22:03:00,
2013-03-18 15:12:00,64.0,52.0,30.02,SSE,164,3.0,6.0,64,0.00,,,0.00,,2013-03-18 22:12:00,
2013-03-18 15:22:00,64.0,52.0,30.02,SSE,164,3.0,6.0,64,0.00,,,0.00,,2013-03-18 22:22:00,
2013-03-18 15:33:00,65.0,52.0,30.01,SSW,200,4.0,9.0,63,0.00,,,0.00,,2013-03-18 22:33:00,
2013-03-18 15:42:00,65.0,52.0,30.01,SSW,200,4.0,9.0,63,0.00,,,0.00,,2013-03-18 22:42:00,
2013-03-18 15:52:00,65.0,52.0,30.01,SSW,200,5.0,9.0,63,0.00,,,0.00,,2013-03-18 22:52:00,
2013-03-18 16:02:00,64.0,52.0,30.01,SSW,205,4.0,8.0,64,0.00,,,0.00,,2013-03-18 23:02:00,
2013-03-18 16:11:00,64.0,52.0,30.01,SSW,205,4.0,8.0,64,0.00,,,0.00,,2013-03-18 23:11:00,
2013-03-18 16:22:00,64.0,52.0,30.01,SSW,205,4.0,8.0,64,0.00,,,0.00,,2013-03-18 23:22:00,
2013-03-18 16:32:00,64.0,52.0,30.00,SW,236,3.0,8.0,64,0.00,,,0.00,,2013-03-18 23:32:00,
2013-03-18 16:42:00,64.0,52.0,30.00,SW,236,3.0,8.0,64,0.00,,,0.00,,2013-03-18 23:42:00,
2013-03-18 16:53:00,64.0,52.0,30.00,South,189,1.0,7.0,65,0.00,,,0.00,,2013-03-18 23:53:00,
2013-03-18 17:02:00,63.0,51.0,30.00,SSW,197,3.0,9.0,66,0.00,,,0.00,,2013-03-19 00:02:00,
2013-03-18 17:11:00,63.0,51.0,30.00,SSW,197,3.0,9.0,66,0.00,,,0.00,,2013-03-19 00:11:00,
2013-03-18 17:22:00,63.0,51.0,30.00,SSW,213,3.0,7.0,66,0.00,,,0.00,,2013-03-19 00:22:00,
2013-03-18 17:32:00,63.0,51.0,30.00,SW,218,3.0,7.0,66,0.00,,,0.00,,2013-03-19 00:32:00,
2013-03-18 17:42:00,63.0,51.0,30.00,SW,218,3.0,7.0,66,0.00,,,0.00,,2013-03-19 00:42:00,
2013-03-18 17:52:00,63.0,51.0,30.00,SW,218,3.0,7.0,66,0.00,,,0.00,,2013-03-19 00:52:00,
2013-03-18 18:02:00,63.0,51.0,30.00,SW,218,3.0,7.0,66,0.00,,,0.00,,2013-03-19 01:02:00,
2013-03-18 18:33:00,61.0,51.0,29.99,SSE,165,3.0,7.0,69,0.00,,,0.00,,2013-03-19 01:33:00,
2013-03-18 18:43:00,61.0,51.0,29.99,SSE,165,3.0,7.0,69,0.00,,,0.00,,2013-03-19 01:43:00,
2013-03-18 18:52:00,61.0,51.0,29.99,South,186,5.0,7.0,70,0.00,,,0.00,,2013-03-19 01:52:00,
2013-03-18 19:02:00,61.0,52.0,30.00,SSW,201,2.0,6.0,71,0.00,,,0.00,,2013-03-19 02:02:00,
2013-03-18 19:11:00,61.0,52.0,30.00,SSW,201,2.0,6.0,71,0.00,,,0.00,,2013-03-19 02:11:00,
2013-03-18 19:21:00,61.0,52.0,30.00,SSW,194,3.0,6.0,71,0.00,,,0.00,,2013-03-19 02:21:00,
2013-03-18 19:32:00,61.0,52.0,30.01,SSW,200,3.0,6.0,72,0.00,,,0.00,,2013-03-19 02:32:00,
2013-03-18 19:41:00,61.0,52.0,30.01,SSW,200,3.0,6.0,72,0.00,,,0.00,,2013-03-19 02:41:00,
2013-03-18 19:51:00,61.0,52.0,30.01,West,270,5.0,13.0,72,0.00,,,0.00,,2013-03-19 02:51:00,
2013-03-18 20:02:00,59.0,51.0,30.01,West,268,6.0,12.0,75,0.00,,,0.00,,2013-03-19 03:02:00,
2013-03-18 20:12:00,59.0,51.0,30.01,West,268,6.0,12.0,75,0.00,,,0.00,,2013-03-19 03:12:00,
2013-03-18 20:21:00,59.0,51.0,30.01,West,268,6.0,12.0,75,0.00,,,0.00,,2013-03-19 03:21:00,
2013-03-18 20:32:00,58.0,52.0,30.04,WNW,282,6.0,10.0,79,0.00,,,0.00,,2013-03-19 03:32:00,
2013-03-18 20:42:00,58.0,52.0,30.04,WNW,282,6.0,10.0,79,0.00,,,0.00,,2013-03-19 03:42:00,
2013-03-18 20:53:00,58.0,52.0,30.04,WNW,282,6.0,10.0,79,0.00,,,0.00,,2013-03-19 03:53:00,
2013-03-18 21:02:00,58.0,52.0,30.04,West,279,2.0,5.0,79,0.00,,,0.00,,2013-03-19 04:02:00,
2013-03-18 21:12:00,58.0,52.0,30.04,West,279,2.0,5.0,79,0.00,,,0.00,,2013-03-19 04:12:00,
2013-03-18 21:22:00,58.0,52.0,30.04,West,279,2.0,5.0,79,0.00,,,0.00,,2013-03-19 04:22:00,
2013-03-18 21:33:00,58.0,52.0,30.04,WNW,295,4.0,6.0,79,0.00,,,0.00,,2013-03-19 04:33:00,
2013-03-18 21:42:00,58.0,52.0,30.04,WNW,295,4.0,6.0,79,0.00,,,0.00,,2013-03-19 04:42:00,
2013-03-18 21:52:00,58.0,52.0,30.04,West,277,3.0,5.0,79,0.00,,,0.00,,2013-03-19 04:52:00,
2013-03-18 22:02:00,57.0,51.0,30.06,WNW,283,5.0,6.0,79,0.00,,,0.00,,2013-03-19 05:02:00,
2013-03-18 22:11:00,57.0,51.0,30.06,WNW,283,5.0,6.0,79,0.00,,,0.00,,2013-03-19 05:11:00,
2013-03-18 22:22:00,57.0,51.0,30.06,WNW,283,5.0,6.0,79,0.00,,,0.00,,2013-03-19 05:22:00,
2013-03-18 22:32:00,57.0,51.0,30.07,West,274,0.0,2.0,79,0.00,,,0.00,,2013-03-19 05:32:00,
2013-03-18 22:42:00,57.0,51.0,30.07,West,274,0.0,2.0,79,0.00,,,0.00,,2013-03-19 05:42:00,
2013-03-18 22:52:00,57.0,51.0,30.07,West,275,0.0,0.0,80,0.00,,,0.00,,2013-03-19 05:52:00,
2013-03-18 23:02:00,56.0,50.0,30.07,West,274,0.0,0.0,80,0.00,,,0.00,,2013-03-19 06:02:00,
2013-03-18 23:11:00,56.0,50.0,30.07,West,274,0.0,0.0,80,0.00,,,0.00,,2013-03-19 06:11:00,
2013-03-18 23:21:00,56.0,50.0,30.07,West,274,0.0,0.0,80,0.00,,,0.00,,2013-03-19 06:21:00,
2013-03-18 23:32:00,55.0,50.0,30.07,West,274,0.0,1.0,83,0.00,,,0.00,,2013-03-19 06:32:00,
2013-03-18 23:42:00,55.0,50.0,30.07,West,274,0.0,1.0,83,0.00,,,0.00,,2013-03-19 06:42:00,
2013-03-18 23:52:00,55.0,50.0,30.07,West,274,0.0,1.0,83,0.00,,,0.00,,2013-03-19 06:52:00,